Location: Lake of the Woods (North-East)
(49.6672°N, 94.8656°W)
Time: 04:55:25
(UTC-06:00)

ISS - All Passes

Search period start: 30 January 2015 00:00
Search period end: 09 February 2015 00:00
Orbit: 401 x 408 km, 51.6° (Epoch: 29 January)

Date Brightness Start Highest point End Pass type
(mag) Time Alt. Az. Time Alt. Az. Time Alt. Az.
30 Jan - 00:18:09 10° W 00:21:27 68° N 00:24:45 10° ENE night (unlit)
30 Jan - 01:54:50 10° WNW 01:58:08 66° N 02:01:26 10° E night (unlit)
30 Jan - 03:31:24 10° WNW 03:34:34 45° SSW 03:37:44 10° SE night (unlit)
30 Jan - 21:50:06 10° SSW 21:52:54 26° SE 21:55:44 10° E night (unlit)
30 Jan - 23:25:51 10° WSW 23:29:09 85° NNW 23:32:28 10° ENE night (unlit)
31 Jan - 01:02:32 10° WNW 01:05:48 59° N 01:09:05 10° E night (unlit)
31 Jan - 02:39:05 10° WNW 02:42:23 67° SSW 02:45:39 10° ESE night (unlit)
31 Jan - 04:16:19 10° W 04:18:25 16° SW 04:20:28 10° S night (unlit)
31 Jan - 20:58:39 10° S 21:00:49 17° SE 21:03:02 10° E night (unlit)
31 Jan - 22:33:36 10° WSW 22:36:52 71° SSE 22:40:10 10° ENE night (unlit)
01 Feb - 00:10:11 10° W 00:13:27 59° N 00:16:44 10° ENE night (unlit)
01 Feb - 01:46:47 10° WNW 01:50:06 88° NNE 01:53:25 10° ESE night (unlit)
01 Feb - 03:23:33 10° W 03:26:19 25° SW 03:29:04 10° SSE night (unlit)
01 Feb - 20:08:42 10° SE 20:08:45 10° SE 20:08:54 10° SE night (unlit)
01 Feb - 21:41:28 10° SW 21:44:37 47° SSE 21:47:49 10° ENE night (unlit)
01 Feb - 23:17:49 10° W 23:21:05 64° N 23:24:22 10° ENE night (unlit)
02 Feb - 00:54:28 10° WNW 00:57:46 70° NNE 01:01:04 10° E night (unlit)
02 Feb - 02:31:02 10° W 02:34:09 38° SSW 02:37:14 10° SE night (unlit)
02 Feb - 20:49:30 10° SSW 20:52:24 30° SSE 20:55:22 10° E night (unlit)
02 Feb - 22:25:25 10° WSW 22:28:43 78° NNW 22:32:01 10° ENE night (unlit)
03 Feb - 00:02:06 10° WNW 00:05:22 61° N 00:08:39 10° E night (unlit)
03 Feb - 01:38:38 10° WNW 01:41:54 59° SSW 01:45:09 10° SE night (unlit)
03 Feb - 03:16:11 10° WSW 03:17:53 13° SW 03:19:30 10° SSW night (unlit)
03 Feb - 19:57:48 10° S 20:00:14 20° SE 20:02:42 10° E visible
03 Feb - 21:33:05 10° WSW 21:36:21 80° SSE 21:39:40 10° ENE night (unlit)
03 Feb - 23:09:42 10° W 23:12:58 58° N 23:16:14 10° E night (unlit)
04 Feb - 00:46:16 10° WNW 00:49:34 84° SSW 00:52:53 10° ESE night (unlit)
04 Feb - 02:23:08 10° W 02:25:44 21° SW 02:28:18 10° SSE night (unlit)
04 Feb - 19:06:47 10° SSE 19:08:05 12° SE 19:09:29 10° ESE visible
04 Feb - 20:40:49 10° SW 20:44:01 55° SSE 20:47:16 10° ENE visible
04 Feb - 22:17:15 10° W 22:20:32 62° N 22:23:48 10° ENE night (unlit)
04 Feb - 23:53:53 10° WNW 23:57:11 75° NNE 00:00:29 10° E night (unlit)
05 Feb - 01:30:30 10° W 01:33:31 33° SSW 01:36:31 10° SSE night (unlit)
05 Feb - 19:48:42 10° SW 19:51:44 35° SSE 19:54:47 10° E visible
05 Feb - 21:24:48 10° W 21:28:05 72° NNW 21:31:23 10° ENE night (unlit)
05 Feb - 23:01:28 10° WNW 23:04:44 63° N 23:08:02 10° E night (unlit)
06 Feb - 00:38:00 10° WNW 00:41:13 51° SSW 00:44:26 10° SE night (unlit)
06 Feb - 02:16:05 10° WSW 02:17:08 11° SW 02:18:05 10° SSW night (unlit)
06 Feb - 18:56:50 10° SSW 18:59:28 23° SE 19:02:08 10° E visible
06 Feb - 20:32:22 10° WSW 20:35:39 88° SSE 20:38:57 10° ENE visible
06 Feb - 22:09:01 10° W 22:12:16 58° N 22:15:32 10° E night (unlit)
06 Feb - 23:45:33 10° WNW 23:48:51 75° SSW 23:52:08 10° ESE night (unlit)
07 Feb - 01:22:35 10° W 01:24:57 18° SW 01:27:16 10° S night (unlit)
07 Feb - 18:05:26 10° S 18:07:14 14° SE 18:09:07 10° ESE visible
07 Feb - 19:40:00 10° WSW 19:43:14 63° SSE 19:46:30 10° ENE visible
07 Feb - 21:16:31 10° W 21:19:45 60° N 21:23:02 10° ENE visible
07 Feb - 22:53:06 10° WNW 22:56:25 81° NNE 22:59:43 10° ESE night (unlit)
08 Feb - 00:29:47 10° W 00:32:41 28° SW 00:35:33 10° SSE night (unlit)
08 Feb - 18:47:45 10° SW 18:50:51 41° SSE 18:53:58 10° E visible
08 Feb - 20:23:59 10° W 20:27:15 68° NNW 20:30:32 10° ENE visible
08 Feb - 22:00:38 10° WNW 22:03:55 66° N 22:07:12 10° E night (unlit)
08 Feb - 23:37:11 10° WNW 23:40:20 44° SSW 23:43:29 10° SE night (unlit)
